ROMMA est une association bénévole à but non lucratif. Votre soutien est indispensable : ADHERER à ROMMA ou FAIRE un DON

Chambon - (38, Isère)

Oisans (2460 m)   Longitude: 06° 10' 42" E   Latitude: 45° 01' 32" N Station partenaire n°803
 

Détail journalier du     <<     >>

Température Humidité Vent Dir Rafale Dir. rafale Neige 1 Neige 2
Heure (°C) (%) (km/h) (km/h) (cm) (cm)
01:00 -9.7877OSO12OSO074
02:00 -10.5906OSO12OSO074
03:00 -9.08414OSO21OSO074
04:00 -8.07813SSO26SSO074
05:00 -8.3769SSO22SSO073
06:00 -7.67011SSO17SO073
07:00 -7.9699SSO15SSO073
08:00 -8.9805SSO10SSO073
09:00 -8.5754NO10NNO073
10:00 -4.0542NNE6NNE072
11:00 -6.0581SSO7SSO072
12:00 -5.9592N6SSO072
13:00 -6.2605N8N072
14:00 -6.4604NNE10NE073
15:00 -6.5623NNE12NNE072
16:00 -7.6699NNE16NNE073
17:00 -8.17611N17N073
18:00 -8.27711N16NNE072
19:00 -8.27810NNE16NNE072
20:00 -8.68313N18NNE072
21:00 -8.88720NNE30NE072
22:00 -9.09218NNE32NNE072
23:00 -8.89211NNE25NNE072
minuit -8.3824NNE17NNE072

Graphique du 18-11-2019

 

Serveur OMMA